Wetbulb
73.01 73.29 73.74 73.99 74.71 75.33 75.42 76.17 76.92 77.31 78.44 78.56 78.93 78.82 78.02 78.14 79.14 79.11 78.35 77.09 76.05 74.81 74.41 73.86 72.92 73.45 72.08 73.32 74.63 75.36 74.09 73.28 71.55 74.17 74.86 74.70 73.55 72.95 72.96 72.03 72.77 71.41 70.10
74.63 75.11 74.76 75.00 75.39 75.00 76.25 75.82 75.59 75.11 75.32 75.51 75.62 75.38 75.38 74.64 73.52 74.09 74.71 73.74 72.82 72.78 73.11 72.62 72.15 71.70 71.57 71.80 71.60 73.98 73.80 74.32 72.22 72.83 75.47 73.81 72.55 73.38 72.91 71.87 71.37 71.13 70.36
74.05 71.93 70.11 69.22 69.71 70.69 69.81 70.02 71.01 71.87 71.95 73.61 73.41 73.39 73.24 72.26 71.38 71.04 71.42 72.12 72.22 71.78 71.54 71.07 70.26 70.42 69.99 68.75 69.49 72.38 73.17 73.31 73.14 70.97 72.92 74.34 72.41 71.33 70.78 70.78 70.81 71.30 70.50
70.49 68.87 68.40 69.00 68.82 68.88 69.53 69.06 69.54 70.11 70.09 70.71 70.96 70.85 71.10 71.29 71.71 71.66 71.34 70.90 71.15 71.09 71.71 71.35 71.05 70.47 69.71 69.42 68.15 68.61 69.13 70.25 71.15 71.17 71.97 73.26 72.61 72.24 70.42 68.97 69.32 69.55 68.54
68.60 67.77 68.04 68.29 68.97 70.27 69.69 68.79 68.03 68.78 69.21 68.90 68.94 69.16 70.38 70.65 70.11 69.82 71.10 71.29 71.42 71.22 71.80 71.26 70.42 69.54 67.54 67.32 67.43 68.11 68.87 68.03 68.18 69.16 69.78 70.67 71.10 68.32 68.86 70.54 68.67 70.83 68.86
68.29 67.18 68.06 68.20 68.05 67.20 68.01 67.16 65.46 64.93 65.70 66.56 66.86 67.44 68.12 67.45 62.84 63.18 64.96 68.41 69.60 68.85 68.17 68.94 69.58 68.08 68.12 65.19 64.78 65.01 66.76 67.77 67.39 66.81 66.68 67.78 70.53 71.41 70.50 68.88 68.03 67.05 65.69
66.59 67.72 66.11 65.32 64.91 65.04 65.88 65.86 64.66 64.66 64.83 64.76 64.23 64.99 65.74 66.56 61.65 61.05 62.41 66.35 66.66 66.40 67.10 66.94 66.64 66.07 66.90 67.93 66.32 64.97 64.91 64.30 65.11 68.60 68.09 68.35 69.47 71.20 71.95 70.03 69.41 69.13 68.85
67.74 65.92 66.26 67.42 66.20 66.28 66.54 64.77 64.66 63.95 63.64 63.89 63.63 64.00 64.25 64.39 59.91 58.88 59.28 65.39 66.10 66.56 66.59 66.49 66.54 67.28 67.78 66.39 66.49 66.79 67.66 68.77 70.20 70.20 70.53 70.80 71.42 71.86 71.98 71.24 70.56 69.64 69.80
63.98 62.80 63.38 64.01 63.59 63.73 63.01 63.08 63.03 63.04 62.64 62.44 62.53 62.82 63.12 64.13 58.25 56.79 59.93 63.43 63.43 64.02 64.55 64.87 64.91 64.62 62.49 60.04 64.77 66.88 66.73 67.90 66.24 63.35 62.84 62.43 62.45 62.03 64.55 69.87 67.11 65.26 63.22
63.45 63.43 62.88 63.10 62.97 62.22 62.01 62.18 62.84 63.08 62.81 61.97 61.82 62.92 60.38 62.02 57.63 55.11 57.15 61.12 61.22 61.78 63.59 64.18 61.17 61.73 57.58 55.38 60.68 63.74 65.43 67.24 68.82 69.28 68.26 66.39 65.22 68.11 63.28 68.45 68.07 64.09 65.02
63.48 63.57 63.04 63.10 62.91 63.17 62.59 62.94 62.82 63.06 62.13 61.86 61.41 62.20 61.88 60.81 61.14 54.89 53.87 60.05 60.19 60.05 60.64 61.46 62.73 57.75 53.75 52.44 52.33 60.66 62.62 65.79 66.95 67.04 66.06 66.46 67.29 67.57 68.80 69.67 66.95 65.71 66.57
63.55 62.72 61.35 61.56 61.02 60.22 60.06 60.74 61.02 61.07 60.23 60.33 60.36 60.27 61.18 62.13 57.39 56.45 53.54 53.19 57.00 59.58 60.18 61.12 61.88 54.65 51.84 51.23 53.19 54.60 54.33 56.68 63.29 65.40 64.52 64.91 64.99 65.47 66.43 68.32 70.45 70.02 68.26
61.84 60.54 59.91 58.49 57.44 57.51 56.83 58.06 58.67 59.48 59.38 58.91 58.56 58.71 59.10 59.99 60.63 55.10 53.40 53.16 54.70 58.04 61.29 59.19 54.89 52.51 51.07 54.05 53.34 53.09 52.96 59.37 62.63 62.76 62.23 62.00 64.62 66.04 67.56 67.39 68.16 69.48 69.52
59.33 58.56 58.07 57.92 58.09 58.65 57.86 57.05 56.38 57.01 57.03 58.08 58.00 57.76 58.29 58.98 59.77 60.70 60.69 60.67 57.82 58.66 59.22 60.54 58.44 54.97 52.93 55.67 57.29 60.61 63.19 63.35 62.67 62.18 62.25 63.52 64.83 64.83 65.01 65.90 65.28 65.20 65.18
57.50 57.16 56.72 57.05 57.75 57.61 57.38 56.55 57.26 58.59 56.48 56.96 57.69 58.10 57.61 57.73 58.72 53.25 51.76 57.73 58.71 55.84 52.06 59.35 59.90 60.10 60.12 60.73 61.32 61.59 61.85 62.21 61.61 62.42 62.68 62.89 63.13 63.36 63.96 65.22 65.19 64.86 63.38
55.72 55.19 55.15 56.11 57.09 57.30 55.94 55.71 53.33 51.26 49.51 47.40 46.56 50.45 58.23 51.84 48.39 46.09 44.25 43.53 43.70 44.75 53.16 55.42 56.22 57.91 58.38 58.91 59.23 59.64 60.84 60.65 61.54 61.92 62.06 62.38 62.30 62.81 63.33 64.21 64.70 64.05 62.98
55.92 55.93 55.71 55.32 56.55 56.25 56.26 55.10 53.81 54.39 49.16 47.48 45.65 45.19 44.45 47.87 45.12 43.42 43.25 42.90 43.91 44.61 50.74 55.78 55.21 54.74 55.01 56.10 57.56 57.79 58.34 60.46 61.87 61.26 61.36 61.62 62.10 63.05 62.41 62.83 63.15 63.12 62.15
56.82 50.40 57.47 57.69 57.43 56.56 55.79 55.41 55.47 54.88 54.56 55.97 52.11 51.86 46.83 44.58 44.91 43.93 41.65 44.07 54.11 51.23 55.07 53.60 52.89 53.83 53.81 53.77 54.50 54.97 55.47 56.20 56.37 57.31 59.15 60.93 61.31 61.92 62.13 62.19 62.60 62.60 62.88
56.80 57.29 57.54 57.54 57.39 55.58 56.60 55.79 55.58 55.54 55.51 55.51 56.46 53.01 52.42 48.08 46.97 43.08 43.22 54.39 54.23 54.43 54.74 53.13 53.37 53.89 53.30 53.77 55.24 57.53 58.14 57.39 57.58 57.88 57.33 57.65 58.85 59.44 59.35 60.06 62.34 55.66 58.38
57.83 54.94 53.81 57.00 57.03 56.87 56.75 56.00 55.47 55.12 55.35 55.25 55.19 55.63 56.81 54.71 55.12 54.95 54.96 54.59 51.87 53.53 54.29 53.33 53.84 53.81 53.78 54.35 55.62 57.13 56.76 56.60 56.77 58.65 58.06 57.71 58.11 59.46 59.33 60.91 61.86 62.63 62.56
58.09 58.12 56.18 56.69 57.20 56.75 56.54 56.28 56.37 55.96 55.37 55.28 55.46 55.44 45.84 53.75 54.18 54.20 53.96 53.87 52.41 53.58 53.38 53.35 53.59 53.80 53.99 54.09 54.46 55.29 54.03 54.06 54.87 57.10 58.14 57.59 57.53 57.46 59.83 61.66 61.94 62.24 62.56
58.25 58.16 57.96 57.58 57.72 56.86 56.52 56.69 56.43 56.41 56.07 55.62 55.80 55.10 46.32 54.09 53.40 52.35 52.86 52.48 53.01 53.15 53.14 52.17 51.29 51.10 51.90 52.91 52.80 51.80 52.30 52.97 53.46 54.13 54.75 56.70 58.09 58.40 58.69 59.01 59.45 59.74 62.56
58.51 58.05 57.77 57.94 57.92 55.10 56.19 56.70 56.14 55.78 55.40 55.73 55.55 54.41 53.84 53.21 52.78 51.70 52.05 52.10 52.16 51.66 50.97 50.28 49.58 49.74 50.60 51.01 51.02 50.85 49.90 50.01 51.73 52.38 51.95 53.01 53.10 53.55 55.54 57.16 58.33 59.98 61.81
57.68 57.71 57.38 57.17 56.99 55.96 55.99 55.69 55.91 51.29 54.17 54.76 54.02 53.39 53.02 52.92 52.07 50.99 51.18 51.84 51.01 50.67 50.69 49.92 48.90 47.95 48.54 48.48 48.57 48.73 48.82 49.08 48.20 46.29 47.01 48.72 50.48 50.40 53.37 53.90 55.53 57.03 57.74
56.55 56.29 56.22 56.13 53.46 53.13 55.60 55.93 53.52 55.68 54.92 53.98 53.22 53.17 53.26 53.35 50.55 50.65 50.50 50.64 50.11 49.28 48.68 48.00 47.80 47.41 47.08 47.10 47.44 47.43 43.05 34.23 35.34 36.38 39.00 42.71 45.93 47.71 50.15 52.02 53.07 54.70 56.45
56.09 55.82 55.87 56.02 55.32 54.14 55.43 54.39 54.45 55.48 54.18 53.60 53.55 53.42 53.45 53.08 51.99 49.98 49.74 49.73 48.74 48.16 47.51 47.33 46.74 46.54 46.17 45.96 46.23 40.34 35.00 32.95 35.68 33.07 36.62 40.78 44.43 47.10 48.67 50.19 51.94 52.55 53.75
MSLP
1009.74 1010.52 1011.44 1012.22 1012.82 1013.30 1013.44 1013.58 1013.77 1013.97 1014.20 1014.14 1014.27 1014.40 1014.34 1014.51 1014.56 1014.35 1014.65 1015.00 1015.22 1015.45 1015.46 1015.40 1015.07 1014.86 1014.34 1014.28 1014.39 1014.22 1012.82 1013.25 1014.09 1013.80 1013.98 1014.24 1014.25 1014.33 1014.37 1014.68 1014.69 1014.90 1014.84
1010.33 1011.22 1011.92 1012.48 1012.89 1013.10 1013.19 1013.89 1014.16 1014.32 1014.57 1014.74 1014.69 1014.50 1014.75 1014.92 1015.01 1015.08 1015.11 1015.31 1015.35 1015.34 1015.24 1015.30 1015.02 1015.04 1015.04 1015.04 1014.67 1014.36 1013.09 1011.69 1013.08 1013.49 1013.43 1013.53 1013.99 1014.05 1014.27 1014.46 1014.30 1014.38 1014.29
1010.34 1011.50 1012.53 1013.47 1014.14 1014.26 1014.71 1014.82 1014.85 1014.94 1014.92 1014.92 1015.06 1014.96 1014.85 1015.09 1015.21 1015.32 1015.31 1015.33 1015.28 1015.18 1015.18 1014.93 1014.81 1014.75 1014.54 1014.72 1014.53 1014.16 1013.91 1012.27 1012.48 1013.23 1013.02 1012.99 1013.12 1013.65 1013.90 1013.99 1013.95 1013.75 1013.64
1011.08 1011.91 1012.93 1013.85 1014.56 1014.78 1014.88 1014.95 1014.81 1014.92 1015.21 1015.45 1015.42 1015.51 1015.67 1014.93 1015.14 1015.36 1015.49 1015.01 1014.89 1014.90 1014.93 1014.78 1014.45 1014.26 1014.22 1014.09 1013.80 1013.67 1013.59 1012.38 1012.34 1012.75 1013.00 1012.78 1012.99 1013.19 1013.55 1013.48 1013.23 1013.16 1012.84
1011.11 1012.09 1013.06 1013.71 1014.06 1014.76 1015.33 1015.08 1015.14 1014.91 1015.65 1015.83 1015.64 1015.72 1015.74 1015.64 1015.02 1015.74 1015.38 1015.14 1015.03 1014.72 1014.51 1014.29 1014.01 1013.81 1013.92 1014.10 1013.71 1013.04 1012.56 1012.38 1012.48 1012.84 1012.82 1012.71 1012.57 1013.01 1012.96 1012.70 1012.54 1012.05 1012.25
1010.71 1012.03 1012.36 1012.29 1012.77 1013.75 1014.64 1014.84 1015.23 1015.74 1015.04 1015.67 1015.83 1016.02 1016.12 1015.51 1016.46 1016.18 1015.72 1015.46 1015.30 1015.01 1014.50 1014.16 1014.05 1013.72 1013.35 1013.40 1013.42 1013.18 1013.02 1013.00 1012.76 1012.23 1011.79 1011.72 1011.59 1011.93 1012.23 1012.28 1012.01 1011.90 1011.55
1010.53 1011.11 1012.72 1012.01 1011.06 1013.34 1014.56 1014.26 1014.09 1015.68 1015.70 1014.97 1015.75 1016.45 1015.91 1015.78 1015.96 1015.96 1015.59 1015.37 1015.06 1014.91 1014.59 1014.12 1013.64 1013.25 1013.18 1012.81 1012.51 1012.66 1012.72 1012.67 1012.71 1012.53 1011.99 1011.41 1011.29 1011.25 1011.36 1011.32 1011.30 1011.22 1010.66
1012.66 1012.58 1012.05 1011.40 1014.13 1014.98 1013.84 1014.15 1014.47 1015.46 1015.13 1015.35 1015.70 1016.11 1016.06 1015.52 1015.80 1015.94 1015.86 1015.44 1014.94 1014.73 1014.37 1013.88 1013.78 1013.61 1013.20 1012.94 1012.63 1012.10 1011.91 1011.67 1011.35 1011.39 1011.23 1011.18 1011.06 1011.05 1010.72 1010.76 1010.99 1010.78 1010.56
1013.06 1013.25 1013.14 1011.38 1015.22 1016.03 1014.29 1014.05 1014.63 1015.06 1014.53 1014.70 1015.40 1015.38 1015.33 1015.62 1015.77 1015.86 1015.65 1015.29 1015.09 1014.67 1014.21 1014.10 1014.05 1013.80 1013.51 1013.44 1013.13 1012.39 1011.75 1011.34 1010.56 1010.98 1011.25 1011.15 1010.92 1010.72 1010.80 1010.73 1010.67 1010.71 1010.32
1013.57 1013.96 1013.42 1014.37 1014.67 1015.07 1014.99 1015.04 1015.46 1015.58 1014.97 1014.84 1014.97 1014.99 1015.21 1015.53 1015.87 1015.91 1015.70 1015.22 1014.76 1014.32 1013.92 1013.81 1013.67 1013.77 1013.92 1013.88 1013.31 1012.67 1011.83 1011.21 1010.72 1010.39 1010.20 1010.14 1010.04 1009.83 1009.86 1010.13 1010.00 1009.92 1009.58
1013.91 1014.14 1014.52 1014.72 1015.41 1015.18 1015.19 1015.22 1015.27 1015.50 1015.59 1015.22 1015.49 1015.51 1015.63 1015.78 1015.80 1015.73 1015.74 1015.58 1014.97 1014.43 1013.68 1013.34 1013.05 1013.24 1013.57 1013.31 1013.36 1012.60 1012.13 1011.73 1011.10 1010.37 1009.77 1009.11 1008.98 1008.99 1008.89 1009.21 1009.34 1009.44 1008.92
1014.13 1014.64 1015.17 1015.51 1015.17 1015.32 1015.35 1015.45 1015.83 1015.55 1015.29 1015.35 1015.45 1015.38 1015.14 1015.46 1015.56 1015.62 1015.61 1015.57 1015.46 1014.67 1014.12 1013.54 1013.27 1013.43 1013.02 1012.65 1012.72 1012.11 1012.28 1012.21 1010.98 1010.24 1009.33 1008.85 1008.12 1008.23 1008.15 1008.33 1008.48 1008.58 1008.48
1014.63 1015.06 1015.13 1015.12 1015.18 1015.53 1015.90 1015.47 1015.42 1015.32 1015.23 1015.09 1014.95 1014.79 1014.73 1014.87 1015.04 1015.11 1015.23 1015.37 1015.09 1014.77 1013.85 1013.66 1013.55 1013.01 1012.60 1011.99 1011.47 1011.35 1011.73 1011.24 1010.12 1009.34 1008.73 1008.41 1007.79 1008.06 1008.30 1007.87 1007.92 1007.73 1007.72
1015.05 1015.54 1015.61 1015.68 1015.78 1015.75 1015.79 1015.92 1015.68 1015.37 1015.29 1015.19 1014.85 1014.73 1014.68 1014.58 1014.57 1014.65 1014.57 1014.44 1014.27 1013.94 1013.57 1013.05 1012.89 1012.55 1012.17 1011.87 1011.41 1010.62 1010.49 1009.97 1009.33 1008.54 1008.07 1007.48 1007.53 1007.71 1007.15 1007.25 1007.16 1006.94 1007.00
1015.35 1015.78 1015.98 1016.07 1016.26 1016.18 1016.23 1015.97 1015.51 1015.51 1015.69 1015.46 1015.11 1014.80 1014.72 1014.88 1014.74 1015.19 1015.34 1014.73 1014.25 1014.05 1013.94 1012.72 1011.93 1011.42 1011.17 1010.63 1010.33 1009.97 1009.63 1009.22 1008.77 1008.39 1007.70 1007.17 1007.06 1006.80 1006.37 1006.48 1006.46 1006.45 1006.78
1015.78 1015.98 1016.15 1016.14 1016.08 1016.00 1015.81 1015.64 1015.78 1015.58 1015.58 1015.51 1015.32 1015.44 1014.98 1015.15 1015.16 1015.28 1015.07 1014.69 1014.37 1014.16 1013.59 1012.65 1012.27 1011.75 1011.07 1010.60 1010.12 1009.59 1009.22 1008.76 1008.29 1007.86 1007.47 1007.00 1006.77 1006.33 1005.90 1005.87 1005.83 1005.75 1005.79
1016.17 1016.42 1016.29 1016.11 1016.00 1015.99 1015.92 1015.75 1015.42 1015.38 1015.48 1015.29 1015.44 1015.58 1015.55 1015.38 1015.37 1015.35 1015.29 1014.87 1014.36 1014.18 1013.81 1012.18 1011.70 1011.56 1011.07 1010.87 1010.22 1009.52 1009.05 1008.43 1008.19 1007.74 1007.21 1006.89 1006.47 1006.10 1005.75 1005.46 1005.24 1005.30 1005.34
1016.20 1016.49 1016.21 1016.02 1015.94 1015.90 1015.75 1015.59 1015.44 1015.08 1014.90 1014.80 1014.75 1015.14 1015.28 1015.28 1015.22 1015.01 1014.64 1014.14 1013.28 1013.35 1012.51 1011.83 1011.70 1011.33 1010.88 1010.60 1010.26 1009.83 1009.08 1008.79 1008.33 1007.94 1007.40 1006.69 1006.28 1005.88 1005.33 1004.81 1004.49 1004.15 1004.20
1015.77 1015.88 1015.75 1015.59 1015.43 1015.63 1015.49 1015.20 1014.96 1014.86 1014.76 1014.60 1014.36 1014.07 1014.35 1014.59 1014.59 1014.12 1013.83 1013.10 1012.43 1012.00 1011.54 1011.57 1011.22 1010.65 1010.13 1009.90 1009.18 1008.53 1008.24 1007.98 1007.52 1006.89 1006.91 1006.81 1006.44 1005.85 1005.46 1005.15 1004.38 1003.87 1003.53
1015.21 1015.57 1015.64 1015.12 1015.06 1015.01 1014.89 1014.71 1014.45 1014.33 1014.19 1013.98 1013.64 1013.29 1013.02 1013.04 1012.88 1012.45 1012.08 1011.90 1012.19 1011.74 1011.30 1011.01 1010.49 1010.03 1009.66 1009.39 1008.68 1007.84 1007.79 1007.38 1007.13 1006.48 1006.23 1006.21 1005.97 1005.38 1004.87 1004.45 1003.70 1003.09 1002.45
1014.31 1014.25 1014.55 1014.55 1014.25 1014.17 1014.13 1013.84 1013.66 1013.41 1013.09 1012.91 1012.56 1012.25 1012.84 1012.98 1012.36 1011.64 1011.32 1011.03 1011.24 1011.22 1010.95 1010.66 1010.09 1009.64 1009.19 1008.62 1008.15 1007.56 1007.49 1007.23 1006.88 1006.04 1005.64 1005.56 1005.40 1005.06 1004.36 1003.71 1003.02 1002.39 1002.05
1013.75 1013.55 1013.57 1013.47 1013.28 1013.19 1013.10 1012.97 1012.78 1012.61 1012.36 1011.97 1011.60 1011.42 1011.89 1011.78 1011.29 1011.09 1010.89 1010.92 1010.93 1010.83 1010.60 1010.33 1009.79 1009.25 1008.70 1008.21 1007.70 1007.46 1007.18 1006.79 1006.41 1005.99 1005.61 1005.07 1004.68 1004.34 1003.98 1003.62 1002.92 1002.52 1001.63
1012.98 1012.80 1012.73 1012.64 1012.55 1012.65 1012.56 1012.29 1012.25 1011.98 1011.72 1011.29 1010.98 1010.85 1010.82 1010.81 1010.74 1010.77 1010.91 1010.78 1010.60 1010.40 1010.21 1009.95 1009.41 1008.75 1008.24 1007.92 1007.55 1007.32 1006.99 1006.65 1006.24 1005.97 1005.56 1005.02 1004.65 1004.31 1003.89 1003.24 1002.73 1001.93 1001.37
1012.23 1012.15 1012.10 1012.04 1012.05 1011.98 1011.92 1011.77 1011.44 1011.46 1011.27 1010.91 1010.83 1010.69 1010.58 1010.69 1010.82 1010.96 1010.71 1010.45 1010.26 1009.97 1009.71 1009.40 1009.01 1008.47 1008.06 1007.75 1007.39 1007.13 1006.82 1006.45 1006.24 1006.08 1005.79 1005.15 1004.45 1004.13 1003.59 1003.13 1002.58 1002.06 1001.48
1011.71 1011.72 1011.60 1011.52 1011.59 1011.40 1011.28 1011.19 1011.36 1010.99 1010.86 1010.85 1010.66 1010.48 1010.47 1010.75 1011.03 1010.64 1010.43 1010.13 1009.92 1009.62 1009.36 1009.09 1008.63 1008.28 1007.93 1007.56 1007.23 1006.93 1006.78 1006.65 1006.33 1005.93 1005.57 1004.93 1004.17 1003.66 1003.22 1002.74 1002.31 1001.78 1001.32
1011.58 1011.45 1011.39 1011.29 1011.21 1011.20 1011.13 1011.17 1010.92 1010.76 1010.76 1010.61 1010.45 1010.45 1010.52 1010.47 1010.49 1010.48 1010.20 1009.93 1009.75 1009.50 1009.22 1008.95 1008.64 1008.23 1007.73 1007.36 1007.01 1006.87 1006.51 1006.07 1005.68 1005.41 1005.14 1004.48 1003.65 1002.93 1002.55 1002.17 1001.74 1001.44 1001.00
Wind_Speed
13 11 10 8 8 7 8 8 7 6 5 5 3 4 4 5 5 5 4 5 7 6 6 9 10 9 8 7 5 6 9 8 6 7 5 5 6 7 7 8 8 8 7
6 7 4 5 4 3 2 1 2 5 3 3 2 3 4 4 4 2 2 1 4 7 7 8 11 7 11 8 7 8 7 10 5 8 6 5 7 6 7 8 8 8 8
14 14 14 13 12 11 10 9 8 7 7 5 4 5 5 5 5 3 1 3 5 6 10 10 11 9 9 5 1 4 5 3 5 4 7 5 4 5 7 8 9 10 9
18 18 17 14 11 10 8 8 7 7 7 5 5 3 1 4 3 1 3 4 6 7 9 11 11 11 10 8 6 5 4 4 3 3 7 9 5 5 6 6 9 10 9
19 18 15 11 11 9 7 8 5 8 4 4 3 2 0 1 3 4 5 6 7 8 9 10 10 9 9 9 8 8 9 6 5 6 7 6 8 4 8 6 10 9 8
18 15 12 12 11 9 8 8 7 3 6 4 4 4 1 2 6 6 6 7 8 9 9 11 12 12 11 9 9 8 8 8 10 9 9 9 11 8 8 9 8 7 6
15 9 6 6 8 3 1 3 10 7 5 5 2 2 2 2 3 4 5 7 7 9 10 10 10 9 11 13 10 6 10 12 14 12 13 12 11 9 8 8 10 10 11
8 9 9 10 1 4 3 3 5 3 6 4 2 1 3 2 6 7 7 6 6 8 8 8 9 11 10 11 13 13 12 12 10 9 10 10 9 9 9 8 9 7 7
9 8 7 16 5 2 5 6 5 4 5 5 3 4 4 3 4 4 5 5 5 7 6 7 8 10 8 9 9 12 13 13 6 6 8 9 10 9 10 7 7 6 5
9 8 9 6 8 5 5 4 1 3 3 3 4 3 3 5 4 5 6 5 7 7 8 9 8 8 7 8 8 10 12 12 10 10 9 8 10 9 11 10 7 8 8
10 10 8 8 6 6 6 4 3 2 2 2 3 3 4 4 6 6 4 6 7 8 8 9 8 6 6 6 7 9 11 11 12 10 9 8 6 6 5 5 7 7 7
9 9 8 6 5 5 5 4 2 1 2 3 3 5 4 4 3 6 7 6 6 7 9 8 9 8 12 14 8 11 12 11 9 9 9 9 8 7 5 4 6 10 10
8 6 6 6 7 6 3 5 4 4 3 3 4 4 4 4 5 4 7 7 7 7 7 10 13 15 16 13 14 9 8 7 9 10 10 10 9 8 9 8 7 8 10
8 6 5 4 4 4 4 4 3 3 4 4 4 5 5 5 5 5 5 6 5 7 5 8 10 12 15 14 11 10 7 8 8 9 10 9 8 9 9 8 8 7 7
7 5 4 3 1 1 3 4 4 3 4 6 5 5 6 6 6 7 6 7 8 8 9 9 9 9 9 9 9 9 9 9 9 9 9 8 9 9 9 9 9 8 8
6 4 4 3 2 1 3 4 6 10 11 9 10 8 6 7 12 11 10 9 10 9 6 8 9 10 10 10 9 9 9 9 9 8 9 8 9 9 9 9 9 9 9
5 4 4 2 2 1 2 3 5 3 13 10 9 10 12 11 7 9 10 11 14 5 7 9 8 9 9 10 10 9 9 9 9 9 9 9 9 10 10 10 10 9 10
4 2 1 0 1 2 3 4 5 5 6 5 5 5 10 11 9 9 8 9 7 8 10 8 7 7 7 6 8 8 8 7 7 7 9 9 10 11 11 11 11 12 10
3 2 2 3 3 3 4 4 4 4 4 5 6 5 11 9 11 11 9 8 9 9 8 8 9 8 9 8 11 9 9 8 10 9 7 7 9 9 9 10 12 12 11
5 7 6 4 4 4 4 5 5 4 5 5 6 6 6 6 10 10 8 7 7 9 9 9 9 9 9 9 9 8 8 8 8 9 7 7 8 10 10 12 12 12 11
5 5 5 6 5 5 6 6 6 7 7 7 8 7 3 7 11 10 10 8 8 7 7 8 8 9 8 7 8 6 5 7 8 8 8 8 8 9 11 12 13 12 11
6 6 6 6 6 5 6 7 7 8 8 8 8 8 4 8 9 10 10 9 8 6 6 8 8 8 8 7 5 7 9 8 8 7 7 7 8 8 8 9 10 10 12
7 8 8 7 6 5 7 7 6 6 8 8 8 9 9 10 11 10 8 7 7 6 7 6 7 7 6 7 6 6 8 8 8 8 8 8 7 7 7 7 8 9 9
8 9 9 8 7 6 7 7 7 6 7 7 7 7 9 9 10 9 7 7 6 7 6 6 6 9 8 7 6 6 6 7 6 8 12 10 10 9 9 8 9 11 11
8 8 8 6 5 4 8 7 5 7 6 6 6 8 9 9 6 7 7 6 6 6 7 7 6 8 9 12 10 11 10 11 10 10 8 10 11 12 10 8 10 10 11
9 9 8 7 6 5 6 5 6 5 6 6 6 8 9 9 8 6 7 6 6 6 7 5 7 10 11 8 9 12 12 11 10 8 7 7 8 7 7 10 13 10 12
Wind_Direction
195 194 203 210 203 212 224 229 233 245 271 281 346 330 344 345 314 251 195 187 204 209 210 214 216 214 219 225 234 212 167 163 239 283 260 246 222 230 237 225 226 227 230
129 131 127 143 162 184 213 78 96 114 97 68 79 77 48 60 38 24 226 251 217 232 246 248 254 260 266 271 261 238 206 152 170 261 282 235 228 228 244 240 239 238 240
122 116 97 85 74 71 65 59 57 59 53 54 63 79 93 79 71 30 11 240 260 271 272 275 283 287 299 328 269 299 315 94 152 218 265 251 232 218 225 241 240 240 241
112 105 98 95 91 82 72 55 61 53 39 42 49 54 333 108 103 151 249 284 281 279 279 277 276 279 283 303 310 312 303 1 331 246 266 273 264 234 239 254 243 232 241
112 108 114 121 106 100 84 74 65 72 57 31 57 73 67 267 69 323 294 286 278 278 276 276 276 290 296 283 302 321 333 321 289 278 265 270 268 227 244 255 250 265 237
119 118 134 135 127 129 150 160 118 79 109 78 26 8 339 1 17 347 317 284 280 282 286 289 292 287 286 291 284 274 274 276 273 268 268 261 261 249 254 243 242 246 260
125 124 192 54 69 121 214 119 121 141 159 111 72 301 299 279 38 352 324 279 283 284 281 284 291 294 306 306 308 275 256 241 244 265 270 269 275 270 261 248 238 241 247
104 111 90 105 317 213 174 122 101 143 108 113 141 277 294 9 8 346 314 279 279 276 279 297 306 304 306 318 310 303 295 282 260 242 245 262 264 280 277 259 265 260 264
93 67 62 97 92 237 63 48 23 355 39 47 353 348 355 348 14 353 335 320 295 292 296 294 293 302 334 357 312 298 294 285 243 219 273 295 289 281 267 272 227 211 229
105 104 93 101 130 123 97 73 32 338 1 11 341 341 2 316 325 317 318 292 290 293 285 279 252 266 327 330 317 310 301 295 293 299 296 267 246 260 223 237 234 224 226
117 111 111 112 116 104 97 87 77 42 351 19 307 290 278 280 305 311 324 303 293 293 290 290 290 318 290 289 295 287 273 308 305 292 288 279 280 281 276 230 230 220 246
99 90 88 84 74 69 60 69 9 349 317 306 284 272 264 285 253 299 310 283 290 283 279 286 286 302 306 300 272 258 260 276 269 274 283 279 277 281 289 297 264 243 235
88 76 63 55 48 42 41 27 347 348 323 314 306 304 301 302 292 264 256 262 268 272 286 307 305 295 287 279 252 253 241 243 255 259 264 264 276 286 292 274 262 265 259
97 87 73 54 23 22 10 1 337 339 321 305 307 308 315 319 315 318 323 315 261 258 276 287 294 288 278 273 286 263 255 263 272 274 273 278 284 275 266 269 270 271 276
93 94 91 90 117 97 325 342 340 326 311 316 316 316 318 313 348 338 323 313 326 338 323 293 291 289 282 283 281 281 280 274 267 268 267 273 272 271 264 261 255 261 241
102 90 65 82 83 33 352 340 246 273 289 270 276 277 304 274 295 304 300 284 278 284 281 289 291 285 282 283 279 279 279 275 275 274 271 267 265 263 261 260 253 253 253
111 116 113 94 68 4 301 310 324 262 239 253 241 243 234 270 287 270 264 263 266 220 239 273 275 273 282 286 287 279 284 294 302 283 277 273 270 266 252 254 260 236 253
158 157 212 326 307 296 303 305 297 311 318 312 217 236 213 229 248 283 290 277 272 207 261 285 286 281 273 267 263 260 261 265 272 279 289 281 271 262 261 258 258 260 244
200 215 246 268 264 286 284 292 298 304 303 308 307 250 187 204 257 251 222 281 296 293 298 288 282 277 283 281 274 271 272 270 281 276 266 269 274 268 260 260 269 268 273
219 215 242 268 285 285 284 283 286 286 278 266 278 291 299 310 309 307 307 304 293 293 306 296 287 290 288 280 283 289 293 278 274 275 259 260 263 268 258 254 252 259 261
272 268 233 260 270 284 284 282 281 276 285 292 290 299 337 308 299 305 309 310 301 296 294 296 294 292 284 280 291 293 304 293 299 282 256 253 253 263 266 265 262 261 257
268 269 267 271 286 287 290 297 287 290 293 299 311 318 240 286 310 314 311 313 309 298 297 299 291 290 290 287 310 312 296 286 292 288 301 298 274 259 258 259 262 263 265
271 276 279 278 280 290 284 294 297 303 311 315 322 325 329 329 328 327 318 301 308 305 313 303 300 302 308 307 305 301 298 291 292 296 291 284 284 285 291 290 286 278 272
293 288 283 280 281 294 296 296 312 314 307 320 324 330 332 332 329 318 305 305 303 315 309 309 306 307 308 310 307 301 291 297 313 304 294 278 272 273 271 270 272 270 264
306 299 292 276 267 276 297 303 323 311 321 319 321 330 330 329 313 318 314 308 313 311 318 316 313 312 315 319 316 320 322 304 290 285 284 273 266 266 266 262 262 269 273
307 296 292 284 273 279 280 296 304 315 309 311 326 328 327 327 316 314 317 318 319 318 317 314 310 311 317 312 304 313 304 295 302 283 273 267 263 256 251 254 258 258 259